{"data":{"norad_id":49095,"intl_designator":"2021-075W","name":"ONEWEB-0309","alt_names":[],"object_type":"PAYLOAD","status":"ACTIVE","operator":null,"country":"UK","launch_date":"2021-08-21","launch_site_code":"TYMSC","launch_vehicle":null,"mission":null,"orbit_class":"UNKNOWN","rcs_meters":null,"size_class":null,"mass_kg":null,"dimensions":null,"purposes":["comms"],"wikipedia_slug":null,"has_3d_model":false,"image_url":null,"decayed_at":null,"tle_current":{"epoch":"2026-09-19T13:17:13.180128Z","epoch_age_seconds":103771,"freshness":"FRESH","line1":"1 49095U 21075W   26262.55362477  .00000026  00000+0  33003-4 0  9999","line2":"2 49095  87.9198 347.1236 0001411 102.4600 257.6689 13.17648694246001","mean_motion":13.17648694,"eccentricity":0.0001411,"inclination_deg":87.9198,"raan_deg":347.1236,"arg_perigee_deg":102.46,"mean_anomaly_deg":257.6689,"bstar":3.3003e-5,"rev_number":24600,"period_min":109.28557866426,"perigee_km":1192.6460439098,"apogee_km":1194.7828203839,"semimajor_km":7571.8514321469,"source":"CELESTRAK","updated_at":"2026-09-20T09:00:44.656738Z"}}}